Weather History for KFFO - April, 2014

Change the Weather History Date:

Sunday, April 20, 2014

  Actual Average Record
Temperature  
Mean Temperature 58 °F -  
Max Temperature 75 °F 62 °F 82 °F (2005)
Min Temperature 40 °F 41 °F 32 °F (1997)
Degree Days  
Heating Degree Days 8    
Growing Degree Days 8 (Base 50)    
Moisture  
Dew Point 37 °F    
Average Humidity 49    
Maximum Humidity 76    
Minimum Humidity 26    
Precipitation  
Precipitation 0.00 in - - ()
Sea Level Pressure  
Sea Level Pressure 30.23 in    
Wind  
Wind Speed 4 mph (East)    
Max Wind Speed 10 mph    
Max Gust Speed -    
Visibility 10 miles    
Events      
Averages and records for this station are not official NWS values.
T = Trace of Precipitation, MM = Missing Value Source: NWS Daily Summary

Daily Weather History Graph

Daily Weather History Graph

Search for Another Location

Airport or City:

Trip Planner

Search our weather history database for the weather conditions in past years. The results will help you decide how hot, cold, wet, or windy it might be!

Date:

Astronomy

Apr. 20, 2014 Rise Set
Actual Time 6:51 AM EDT 8:19 PM EDT
Civil Twilight 6:22 AM EDT 8:47 PM EDT
Nautical Twilight 5:48 AM EDT 9:22 PM EDT
Astronomical Twilight 5:13 AM EDT 9:58 PM EDT
Moon 12:58 AM EDT (4/20) 11:10 AM EDT (4/20)
Length of Visible Light 14h 24m
Length of Day
13h 28m
Waning Gibbous, 69% of the Moon is Illuminated
Apr 20
Waning Gibbous
Apr 22
Last Quarter
Apr 29
New
May 6
First Quarter
May 14
Full

Hourly Weather History & Observations

Time (EDT) Temp. Windchill Dew Point Humidity Pressure Visibility Wind Dir Wind Speed Gust Speed Precip Events Conditions
12:58 AM 46.2 °F 44.1 °F 34.0 °F 62% 30.30 in 10.0 mi NNE 4.6 mph - N/A   Clear
1:58 AM 45.7 °F 43.4 °F 32.7 °F 61% 30.28 in 10.0 mi NNE 4.6 mph - N/A   Clear
2:58 AM 44.8 °F 43.3 °F 33.3 °F 64% 30.27 in 10.0 mi North 3.5 mph - N/A   Clear
3:58 AM 42.8 °F - 33.6 °F 70% 30.29 in 10.0 mi North 1.2 mph - N/A   Clear
4:58 AM 40.3 °F - 33.3 °F 76% 30.29 in 10.0 mi Calm Calm - N/A   Clear
5:58 AM 40.5 °F - 32.7 °F 74% 30.30 in 10.0 mi Calm Calm - N/A   Clear
6:58 AM 41.4 °F - 32.5 °F 71% 30.30 in 10.0 mi Calm Calm - N/A   Clear
7:58 AM 42.1 °F - 33.4 °F 71% 30.31 in 10.0 mi NNE 2.3 mph - N/A   Clear
8:58 AM 47.7 °F - 35.8 °F 63% 30.30 in 10.0 mi NE 3.5 mph - N/A   Clear
9:58 AM 55.9 °F - 34.5 °F 45% 30.29 in 10.0 mi ESE 8.1 mph - N/A   Clear
10:58 AM 60.6 °F - 35.1 °F 38% 30.28 in 10.0 mi SE 5.8 mph - N/A   Clear
11:58 AM 64.4 °F - 35.1 °F 34% 30.26 in 10.0 mi Variable 4.6 mph - N/A   Clear
12:58 PM 67.8 °F - 34.2 °F 29% 30.25 in 10.0 mi SE 10.4 mph - N/A   Clear
1:58 PM 70.3 °F - 36.7 °F 29% 30.23 in 10.0 mi SSW 8.1 mph - N/A   Clear
2:58 PM 72.5 °F - 36.3 °F 27% 30.21 in 10.0 mi Variable 4.6 mph - N/A   Clear
3:58 PM 73.6 °F - 36.5 °F 26% 30.19 in 10.0 mi South 10.4 mph - N/A   Clear
4:58 PM 73.9 °F - 37.2 °F 26% 30.17 in 10.0 mi Variable 3.5 mph - N/A   Clear
5:58 PM 75.0 °F - 39.2 °F 27% 30.16 in 10.0 mi South 8.1 mph - N/A   Clear
6:58 PM 73.2 °F - 37.4 °F 27% 30.14 in 10.0 mi South 3.5 mph - N/A   Clear
7:58 PM 68.0 °F - 44.8 °F 43% 30.14 in 10.0 mi Calm Calm - N/A   Clear
8:58 PM 65.1 °F - 42.8 °F 44% 30.14 in 10.0 mi Calm Calm - N/A   Clear
9:58 PM 62.1 °F - 42.6 °F 49% 30.14 in 10.0 mi Calm Calm - N/A   Clear
10:58 PM 57.7 °F - 42.8 °F 57% 30.13 in 10.0 mi Calm Calm - N/A   Clear
11:58 PM 52.7 °F - 43.7 °F 71% 30.12 in 10.0 mi Calm Calm - N/A   Clear